Regional Weather Roundup
Issued by NWS

Home | Current Version | Previous Version | Graphics & Text | Print | Product List | Glossary On
Versions: 1 2 3 4 5 6 7 8 9 10 11 12 13 14 15 16 17 18 19 20 21 22 23 24 25 26 27 28 29 30 31 32 33 34 35 36 37 38 39 40 41 42 43 44 45 46 47 48 49 50
000
ASUS45 KCYS 020510
RWRWY

WYOMING REGIONAL WEATHER ROUNDUP
NATIONAL WEATHER SERVICE CHEYENNE WY
1000 PM MST THU DEC 01 2016

NOTE:  "FAIR" INDICATES FEW OR NO CLOUDS BELOW 12,000 FEET
WITH NO SIGNIFICANT WEATHER AND/OR OBSTRUCTIONS TO VISIBILITY.

WYZ001-020600-
YELLOWSTONE NATIONAL PARK

CITY           SKY/WX    TMP DP  RH WIND       PRES   REMARKS
LK YELLOWSTONE   N/A      5   3  91 CALM      30.03R
W YELLOWSTONE  NOT AVBL

$$
WYZ002>013-054>058-071-098>099-020600-
NORTHERN WYOMING

CITY           SKY/WX    TMP DP  RH WIND       PRES   REMARKS
JACKSON        CLOUDY    16  12  86 CALM      30.06R
CODY           CLOUDY    21  17  84 S5        30.04R WCI  15
GREYBULL       FAIR      26  17  68 CALM      30.04R
WORLAND        CLOUDY    28  24  85 SW6       30.03R WCI  22
SHERIDAN       MOCLDY    32  25  75 W12       30.03R WCI  23
BUFFALO        CLOUDY    34  20  56 NW10      30.01R WCI  26
GILLETTE       CLOUDY    32  23  69 W8        30.00R WCI  25
HULETT         CLOUDY    27  25  93 S7        30.01R WCI  19
NEWCASTLE      FAIR      27  27 100 N3        30.02R

$$
WYZ014>020-022>026-101>103-020600-
CENTRAL WYOMING

CITY           SKY/WX    TMP DP  RH WIND       PRES   REMARKS
BIG PINEY      FAIR       8   4  83 NW8       30.02R WCI  -4
PINEDALE       FAIR      10   5  79 W9        30.01R WCI  -2
DUBOIS         FAIR      18   7  62 NW9       29.98R WCI   6
LANDER         FAIR      21  11  65 W10       30.01R WCI  10
RIVERTON       CLOUDY    23  16  74 NW8       30.02R WCI  14
CASPER         LGT SNOW  26  24  92 CALM      30.01R FOG
DOUGLAS        FLURRIES  28  26  92 NW7       30.02R WCI  21

$$
WYZ021-027>030-104>119-020600-
SOUTHERN WYOMING

CITY           SKY/WX    TMP DP  RH WIND       PRES   REMARKS
EVANSTON       CLOUDY    19  12  74 CALM      30.03R
FORT BRIDGER     N/A     17  16  95 W9        30.06R WCI   5
ROCK SPRINGS   CLOUDY    18  13  80 SW10      30.01R WCI   6
DIXON          CLOUDY    17  15  91 CALM      30.05R
RAWLINS        MOCLDY    18  14  84 W3        29.99R
SARATOGA       CLOUDY    19  19 100 CALM      30.00R
LARAMIE        CLOUDY    18  13  80 E6        29.96R WCI  10
CHEYENNE       CLOUDY    21  14  74 W10       30.00R WCI  10
TORRINGTON     FAIR      26  15  63 NW7       30.02R WCI  18
PINE BLUFFS    MOCLDY    21  16  79 W8        30.02R WCI  12

$$



USA.gov is the U.S. government's official web portal to all federal, state and local government web resources and services.